SCP
0 0 0 0 0 0 0 0 0 0 0 0 0 0 0 0 0 0 0 0 0 0 0 0 0 0 0 0 0 0 0 0 0 0 0 0 0 0 0 0 0 0 0 0 0 0 0 0 0 0 0 0 0 0
0 0 0 0 0 0 0 0 0 0 0 0 0 0 0 0 0 0 0 0 0 0 0 0 0 0 0 0 0 0 0 0 0 0 0 0 0 0 -0 -0 0 0 -0 0 0 0 0 0 0 0 -0 0 0 0
0 0 0 0 0 0 0 0 0 0 0 0 0 0 0 0 0 0 0 0 0 0 0 0 0 0 0 0 0 0 0 0 0 0 0 0 0 0 0 -0 -0 0 -0 0 0 0 0 0 0 -0 -0 0 0 0
0 0 0 0 0 0 0 0 0 0 0 0 0 0 0 0 0 0 0 0 0 0 0 0 -0 -0 0 -0 0 0 0 0 0 0 0 0 0 0 0 -0 -0 -0 0 0 0 0 0 0 0 0 0 -0 -0 -0
0 0 0 0 0 0 0 0 0 0 0 0 0 0 0 0 0 0 0 0 0 0 0 0 0 0 0 0 0 0 0 0 0 0 0 0 0 0 0 0 -0 0 0 0 -0 -0 0 -0 0 0 0 0 0 -0
0 0 0 0 0 0 0 0 0 0 0 0 0 0 0 0 0 0 0 0 0 0 0 0 0 0 0 0 0 0 0 0 0 0 0 0 0 0 0 0 0 0 0 0 0 0 -0 0 0 0 0 0 0 0
0 0 0 0 0 0 0 0 0 0 0 0 0 0 0 0 0 0 0 0 0 0 0 0 0 0 0 0 0 0 0 0 0 0 0 0 0 0 0 -0 0 0 0 0 0 0 0 0 0 0 0 0 0 0
0 0 0 0 0 0 0 0 0 0 0 0 0 0 0 0 0 0 0 0 0 0 0 0 0 0 0 0 0 0 0 0 0 0 0 0 0 0 0 0 0 0 0 0 0 0 0 0 0 0 0 0 0 0
0 0 0 0 0 0 0 0 0 0 0 0 0 0 0 0 0 0 0 0 0 0 0 0 0 0 0 0 0 0 0 0 0 0 0 0 0 0 0 0 0 0 0 0 0 0 0 0 0 0 0 0 0 0
0 0 0 0 0 0 0 0 0 0 0 0 0 0 0 0 0 0 0 0 0 0 0 0 0 0 0 0 0 0 0 0 0 0 0 0 0 0 0 0 0 0 0 0 0 0 0 0 0 0 0 0 0 0
0 0 0 0 0 0 0 0 0 0 0 0 0 0 0 0 0 0 0 0 0 0 0 0 0 0 0 0 0 0 0 0 0 0 0 0 0 0 0 0 0 0 0 0 0 0 0 0 0 0 0 0 0 0
0 0 0 0 0 0 0 0 0 0 0 0 0 0 0 0 0 0 0 0 0 0 0 0 0 0 0 0 0 0 0 0 0 0 0 0 0 0 0 0 0 0 0 -0 0 0 -0 0 0 0 0 0 0 0
0 0 0 0 0 0 0 0 0 0 0 0 0 0 0 0 0 0 0 0 0 0 0 0 0 0 0 0 0 0 0 0 0 0 0 0 0 0 0 0 0 0 0 -0 -0 0 0 0 0 1 0 0 0 0
0 0 0 0 0 0 0 0 0 0 0 0 0 0 0 0 0 0 0 0 0 0 0 0 0 0 0 -0 0 0 0 0 0 0 0 0 0 0 0 -0 -0 -0 0 -0 0 0 0 0 0 1 0 0 0 0
0 0 0 0 0 0 0 0 0 0 0 0 0 0 0 0 0 0 0 0 0 0 0 0 -0 -0 0 0 0 0 0 0 0 -0 0 0 0 0 -0 0 0 -0 -0 0 0 0 0 0 0 0 0 0 0 0
0 0 0 0 0 0 0 0 0 0 0 0 0 0 0 0 0 0 0 0 0 0 0 0 0 0 0 -0 -0 0 -0 -0 -0 0 0 0 0 0 -0 -0 0 0 -0 0 0 0 0 0 0 0 0 0 0 0
0 0 0 0 0 0 0 0 0 0 0 0 0 0 0 0 0 0 0 0 0 -0 -0 -0 -0 -0 -0 -0 0 0 0 -0 -0 -0 0 0 0 0 -0 0 0 0 0 0 0 0 0 0 0 0 0 0 0 0
0 0 -0 0 0 0 0 0 0 0 0 0 0 0 0 0 0 0 0 -0 0 0 0 -0 -0 0 0 0 0 0 0 0 0 0 0 0 0 0 0 0 0 0 0 0 0 0 0 0 0 0 0 0 0 0
0 0 -0 -0 0 0 0 0 0 0 0 0 0 0 0 0 0 0 -0 0 0 -0 -0 0 -0 0 0 0 0 0 0 -0 0 0 0 0 0 0 0 0 0 0 0 0 0 0 0 0 0 0 0 0 0 0
-0 -0 -0 0 0 0 0 0 0 0 0 0 0 0 0 0 0 -0 -0 -0 -0 0 0 -0 -0 0 0 0 -0 -0 -0 0 -0 -0 -0 0 0 0 0 0 0 0 0 0 0 0 0 0 0 0 0 0 0 0
0 0 0 0 0 0 0 0 0 0 -0 0 0 0 0 0 -0 -0 -0 0 -0 -0 -0 0 0 0 -0 0 0 0 -0 -0 -0 0 0 0 0 0 0 0 0 0 0 0 0 0 0 0 0 0 0 0 0 0
0 0 0 0 0 0 0 0 0 -0 0 0 0 0 0 0 -0 0 -0 0 0 -0 0 0 0 -0 0 0 0 -0 -0 -0 0 0 -0 -0 0 0 0 -0 -0 -0 0 0 0 0 0 0 0 0 0 0 0 0
0 0 0 0 0 0 0 -0 -0 -0 -0 0 -0 -0 -0 0 -0 -0 0 0 0 -0 -0 0 -0 -0 0 0 -0 0 0 0 0 0 0 0 0 0 0 0 0 0 0 0 0 0 -0 0 0 0 0 0 0 0
0 0 0 0 0 0 -0 -0 -0 -0 -0 -0 -0 0 -0 0 0 0 0 -0 0 -0 -0 -0 0 0 0 0 0 0 0 0 0 0 0 0 0 0 0 0 0 0 0 -0 -0 0 0 -0 0 0 0 0 -0 0
0 0 0 -0 0 -0 -0 -0 0 0 0 0 -0 -0 0 0 0 0 -0 -0 0 0 0 0 0 0 0 0 0 0 0 0 0 0 0 0 0 0 0 0 0 0 0 0 -0 -0 0 0 0 0 0 0 0 0
0 0 -0 -0 -0 0 0 0 -0 -0 -0 -0 0 0 0 0 0 0 0 0 0 0 0 0 0 0 0 0 0 0 0 0 0 0 0 0 0 0 0 -0 -0 0 0 0 0 0 0 0 0 0 0 -0 0 0
0 0 0 0 0 0 0 0 -0 -0 0 0 0 0 0 0 0 0 0 0 0 0 0 0 0 0 0 0 0 0 0 0 0 0 0 0 0 0 0 -0 -0 0 0 0 0 0 0 0 0 -0 0 0 0 0
0 0 0 -0 -0 0 0 0 -0 0 0 0 0 0 0 0 0 0 0 0 0 0 0 0 0 0 0 0 0 0 0 0 0 0 0 0 0 0 0 0 -0 -0 -0 -0 0 0 -0 -0 -0 0 0 0 0 0
0 0 0 0 0 0 0 0 0 0 -0 -0 0 0 0 0 0 0 -0 0 0 0 0 0 0 0 0 0 0 0 0 0 0 0 0 0 0 0 0 0 0 0 0 0 -0 -0 -0 -0 0 0 0 0 -0 -0
0 -0 -0 0 0 0 0 0 0 0 0 0 0 0 0 0 0 0 0 0 0 0 0 0 0 0 0 0 0 0 0 0 0 0 0 0 0 0 0 0 0 0 0 -0 -0 -0 0 0 0 0 -0 -0 -0 -0
0 -0 0 0 0 0 0 -0 -0 0 0 0 0 0 0 0 0 0 0 0 0 0 0 0 0 0 0 0 0 0 0 0 0 0 0 0 0 0 0 0 0 -0 -0 -0 0 0 -0 -0 -0 -0 -0 -0 -0 -0
0 0 0 0 0 0 -0 0 0 0 0 0 0 0 0 0 0 0 0 0 0 0 0 0 0 0 0 0 0 0 0 0 0 0 0 0 0 -0 -0 -0 -0 -0 -0 0 0 -0 -0 -0 -0 -0 -0 -0 -0 -0
0 0 0 0 0 0 0 0 0 0 0 0 0 0 0 0 0 0 0 0 0 0 0 0 0 -0 -0 0 0 0 0 0 0 -0 0 -0 -0 -0 -0 -0 -0 -0 -0 0 0 0 -0 -0 -0 -0 -0 -0 0 0
Wind_Speed_500mb
31 34 33 33 27 26 26 25 26 27 27 29 31 30 29 28 23 13 10 13 18 11 50 19 9 17 21 17 5 13 19 8 10 10 4 5 3 5 5 8 11 3 5 5 6 7 10 44 18 13 9 31 38 46
33 29 34 32 28 27 27 28 27 28 29 30 31 30 28 28 26 22 14 16 26 31 50 64 71 69 58 52 46 13 7 4 9 6 4 5 5 4 3 5 9 7 8 5 5 8 6 15 6 3 19 25 47 46
39 34 35 33 31 29 29 29 30 29 30 33 31 30 30 29 29 29 27 27 30 21 45 22 4 20 18 18 28 23 14 15 13 1 4 6 6 5 1 5 4 7 6 6 6 4 9 13 28 18 26 37 42 32
41 38 36 34 35 35 33 32 31 30 31 33 33 33 31 29 27 31 32 26 16 12 12 17 9 35 38 51 43 43 56 43 36 33 16 7 4 5 6 7 8 10 2 3 11 16 15 13 37 40 47 35 37 29
48 40 38 39 36 38 37 34 32 31 32 32 34 35 32 29 27 26 18 5 6 11 10 37 83 21 11 29 34 36 52 63 63 23 8 7 8 4 8 1 8 23 13 9 10 8 7 18 36 41 37 60 51 35
52 47 42 42 43 43 40 38 36 33 31 32 33 34 34 30 28 20 6 5 4 3 12 8 37 64 22 25 25 49 52 51 60 39 16 27 51 15 7 6 9 1 18 16 12 16 19 35 47 34 27 39 46 35
57 53 49 46 46 46 44 42 38 35 34 32 31 31 33 29 25 13 11 5 6 21 11 15 16 17 35 40 42 41 39 46 51 42 25 34 31 24 8 22 22 39 52 62 37 33 37 44 44 43 28 30 36 9
63 60 57 52 53 47 47 46 41 38 34 30 28 29 32 30 29 18 5 10 11 11 10 6 9 17 26 23 22 33 38 49 43 38 24 19 16 17 10 19 46 56 65 68 66 63 64 62 62 55 53 47 55 55
68 67 61 57 54 47 46 45 42 35 28 25 24 24 29 6 3 4 11 20 20 16 7 7 4 8 30 29 20 21 12 6 15 12 12 17 9 11 17 39 37 37 39 41 37 47 62 62 70 77 70 60 62 56
49 57 66 63 58 52 49 46 40 30 23 19 15 6 6 3 8 20 8 3 6 10 11 10 9 8 13 7 9 12 13 8 6 8 9 9 16 43 50 42 47 55 66 65 58 61 53 48 55 57 50 52 12 18
48 52 61 64 60 55 53 44 33 22 19 10 8 7 10 11 16 6 6 8 8 6 12 16 21 10 13 7 7 13 7 7 7 10 11 7 5 11 37 44 40 33 39 53 63 80 82 73 72 67 57 42 16 17
57 51 60 60 60 56 48 38 31 31 20 16 8 12 11 7 9 7 7 5 8 8 15 14 19 25 16 11 3 12 7 7 11 5 7 5 1 39 37 30 29 22 28 44 54 64 75 81 67 63 60 22 16 19
65 53 60 59 56 50 45 38 34 35 23 9 6 5 8 10 4 11 10 8 7 11 19 20 11 15 9 8 10 5 10 12 4 5 9 5 19 44 54 46 43 34 41 45 54 57 64 69 64 50 30 19 23 37
62 55 48 53 53 51 41 40 40 39 19 11 10 9 10 10 11 10 10 9 24 32 43 29 15 11 12 3 9 7 10 8 8 7 5 3 38 58 55 47 46 45 48 49 54 39 56 57 56 42 35 24 29 40
53 49 52 54 51 46 47 47 43 45 15 11 11 10 13 27 21 27 39 42 48 46 47 25 8 10 7 7 7 6 7 8 9 7 11 40 46 46 51 52 48 48 50 53 53 45 41 57 37 36 32 27 28 46
46 47 60 56 51 51 50 47 46 29 10 11 16 10 18 12 24 39 43 44 42 44 31 5 3 6 9 6 7 12 7 9 9 7 29 31 49 46 53 55 49 44 35 46 44 56 33 41 39 36 27 25 41 54
64 53 64 54 57 53 51 49 32 16 14 12 17 28 46 37 31 47 43 48 45 52 7 7 3 10 8 7 7 9 9 7 13 28 34 33 36 44 47 52 47 34 38 34 44 48 42 48 49 40 34 35 34 40
67 44 64 69 68 62 52 22 16 14 16 26 15 29 35 41 44 54 59 56 52 44 19 13 13 9 11 10 13 10 27 51 46 44 38 38 57 77 63 53 42 32 33 36 37 9 52 63 54 53 47 45 40 36
49 62 74 74 75 32 18 19 12 10 24 25 34 47 47 47 48 54 59 58 49 45 19 13 10 9 10 15 22 49 53 59 63 68 72 84 83 77 67 46 35 33 35 31 17 24 51 54 51 63 64 59 61 57
52 59 63 67 40 12 13 11 17 10 10 10 24 35 41 46 54 55 48 44 43 31 12 10 20 44 52 69 71 70 67 68 72 67 70 88 77 67 72 78 71 59 53 29 9 42 52 66 65 63 63 59 59 55
64 63 64 46 19 5 8 8 14 11 15 13 28 33 25 37 43 47 50 49 45 18 13 43 59 66 66 69 69 74 73 67 71 81 86 95 97 63 63 55 44 42 40 28 35 48 57 63 62 59 54 50 45 47
72 72 53 40 10 8 9 14 10 11 11 17 26 15 15 11 24 21 20 18 14 40 46 49 45 43 60 75 84 93 94 86 86 88 89 89 95 76 43 64 60 55 48 56 69 63 57 55 57 60 56 48 52 56
66 52 21 17 11 13 11 10 7 7 5 7 8 6 8 8 7 10 8 9 13 19 24 40 54 62 69 74 72 75 70 61 69 58 47 30 50 61 76 82 74 82 72 80 69 62 61 61 52 52 51 54 51 45
42 20 11 13 13 9 8 10 13 8 6 5 5 7 7 6 9 6 6 10 16 23 47 52 49 53 59 59 60 72 54 37 33 40 42 57 68 69 77 78 78 81 83 85 74 74 61 60 54 50 49 49 45 47
9 10 7 8 13 5 6 7 9 5 6 8 7 7 5 3 3 5 5 10 16 40 54 64 57 56 58 72 67 48 36 20 27 35 42 60 65 71 69 68 67 70 79 84 64 72 61 49 47 45 45 49 48 48
4 12 16 19 9 9 8 5 7 10 6 7 8 5 1 1 4 7 5 13 34 54 64 68 70 72 71 61 55 28 16 11 10 25 32 41 56 61 69 71 67 65 65 64 66 59 58 59 55 47 44 54 56 48
4 8 15 14 9 6 7 9 8 1 4 7 4 6 5 5 8 7 15 28 56 71 64 59 62 66 58 37 30 14 8 9 19 27 40 52 53 58 63 70 69 64 57 54 55 54 54 51 46 44 49 62 45 38
11 8 9 11 12 14 5 5 4 5 6 4 1 3 4 5 7 9 32 69 74 61 49 45 38 40 35 30 24 15 26 37 49 51 46 44 46 48 49 45 50 57 55 49 55 51 50 49 45 54 67 50 39 47
9 10 7 10 11 12 14 11 8 10 6 1 3 4 7 14 44 72 73 63 42 40 40 25 27 27 32 56 48 29 34 54 54 63 59 57 56 53 48 50 51 52 54 46 42 44 46 45 49 57 39 34 42 42
14 22 10 8 8 8 10 19 14 23 21 19 16 24 42 61 61 56 35 22 28 36 39 40 39 38 50 44 40 45 42 45 45 56 63 57 52 48 43 43 45 45 48 48 45 41 40 50 53 38 33 39 52 49
9 10 15 11 6 11 21 27 33 28 27 24 34 37 39 41 34 12 13 15 20 33 39 30 29 33 30 38 59 63 52 41 42 49 46 43 43 43 47 46 44 44 45 45 49 55 46 35 35 43 52 62 50 48
11 11 7 5 10 19 26 18 16 14 19 18 20 20 7 8 10 7 12 11 11 11 21 22 19 26 23 35 48 46 50 40 44 41 43 42 41 42 39 37 40 52 48 47 43 41 45 39 43 55 56 46 50 50
7 7 10 10 6 5 11 9 8 8 15 10 12 16 21 15 6 1 7 6 12 7 8 12 12 17 33 37 35 24 24 33 37 47 40 39 40 35 31 33 43 46 44 43 46 38 35 48 47 39 40 45 44 35
Wind_Direction_500mb
287 292 302 311 301 306 312 314 320 329 337 345 347 348 350 348 349 350 283 310 324 265 289 286 200 257 290 293 195 305 342 337 352 38 19 315 351 304 346 262 299 273 345 303 85 188 300 348 353 68 274 335 344 339
283 281 287 299 298 300 307 308 308 317 327 333 339 340 342 342 340 337 333 297 278 269 269 285 281 275 268 283 252 262 249 311 274 60 14 340 328 307 259 280 348 19 150 243 202 195 213 306 165 250 38 1 7 4
287 276 273 280 288 294 300 303 303 309 317 323 327 331 332 333 332 330 333 331 320 303 304 284 319 285 269 320 305 225 248 225 228 275 189 237 259 132 291 262 29 292 161 224 355 194 258 281 1 323 353 7 2 39
277 279 277 268 278 284 289 295 300 304 309 315 316 319 323 327 325 322 326 326 303 308 286 296 273 293 275 274 273 253 253 254 264 271 252 215 194 262 240 204 159 228 57 197 249 262 300 279 322 333 334 325 322 5
272 274 271 269 266 274 279 286 293 299 305 308 310 313 315 319 320 323 326 160 166 313 289 297 306 320 313 286 265 264 249 249 250 238 193 218 230 266 274 283 220 211 209 178 242 208 188 286 329 308 305 305 312 309
265 268 270 266 264 268 275 278 286 293 297 301 304 306 308 313 318 333 216 224 176 310 296 309 301 298 343 342 319 252 246 260 232 226 217 233 235 229 268 240 266 79 337 291 271 301 277 298 303 309 331 292 287 309
257 258 262 264 259 260 266 272 278 283 289 292 295 298 301 305 308 293 251 201 260 303 277 300 282 288 317 333 322 314 290 263 250 240 226 230 221 214 224 262 275 286 291 291 291 265 271 286 284 305 317 278 266 9
252 252 255 257 260 261 259 264 270 278 279 283 291 295 295 300 304 301 237 297 289 298 242 271 273 305 351 344 347 330 322 303 257 233 223 203 225 197 243 241 248 255 256 262 264 256 262 277 283 285 294 298 287 268
249 248 249 254 256 254 254 257 261 267 265 273 283 290 297 294 279 337 301 280 275 233 259 268 261 286 337 349 334 317 284 318 291 234 219 197 191 215 215 212 230 251 269 293 305 273 262 269 280 278 285 297 275 270
259 260 249 249 251 249 249 250 253 249 250 264 280 264 292 272 317 302 285 219 227 213 232 252 263 268 292 290 276 305 276 256 256 245 311 214 226 220 228 246 271 280 289 290 287 284 283 277 273 287 292 325 309 234
258 262 252 245 244 243 243 240 238 220 220 223 200 233 247 269 279 248 238 195 187 252 226 239 233 232 260 238 249 246 248 245 242 254 159 234 267 211 233 246 267 286 302 293 284 283 281 281 284 293 291 299 305 216
253 253 253 239 238 237 231 225 207 191 187 186 220 267 273 233 228 229 210 220 195 238 207 208 246 237 262 248 309 291 281 278 262 191 145 209 299 24 15 354 358 8 332 317 299 294 280 277 278 282 295 225 243 225
244 245 245 235 229 221 215 210 188 187 186 212 233 248 217 226 207 195 213 224 224 216 217 236 269 272 240 237 238 240 240 239 252 205 202 93 355 0 352 339 328 335 346 312 294 281 275 274 270 277 247 243 220 193
232 225 227 223 209 207 203 180 174 174 168 183 198 266 193 219 223 199 214 208 220 272 284 273 264 208 227 240 230 252 254 294 262 201 89 265 346 347 343 334 321 316 325 325 328 299 269 270 261 273 229 221 213 194
213 213 203 197 201 191 174 170 168 169 164 195 204 234 228 229 252 250 246 259 265 284 300 280 268 242 224 234 229 267 262 247 339 50 330 317 324 326 330 332 327 320 318 316 328 328 295 256 255 222 209 206 210 196
194 182 190 188 184 169 162 163 167 166 188 220 230 248 251 251 257 267 268 276 298 275 295 209 234 287 251 205 242 217 254 240 215 198 248 296 302 311 323 322 313 308 309 318 320 320 283 215 213 209 192 201 177 177
183 181 184 176 162 157 157 158 160 194 211 225 239 241 255 278 278 278 281 286 292 296 210 178 213 250 296 242 245 215 221 218 226 280 277 277 273 292 298 303 305 306 304 292 296 317 210 194 194 196 196 187 177 171
184 181 171 159 153 152 158 156 181 213 238 237 250 252 252 260 268 277 280 283 283 273 229 204 203 215 223 243 250 250 268 288 294 303 291 284 294 300 297 299 296 285 270 272 298 305 173 179 177 175 175 167 162 158
178 162 160 160 155 136 158 189 202 249 238 250 257 268 270 270 272 274 276 282 288 283 245 177 239 223 228 240 261 276 286 294 302 302 295 296 296 296 297 284 264 258 272 300 321 187 167 180 181 163 154 152 150 151
146 151 156 153 150 148 170 191 199 244 261 256 280 270 270 271 277 282 281 284 289 293 237 218 242 256 266 272 275 277 283 289 291 287 293 293 291 287 282 282 274 272 274 263 274 161 160 151 153 154 154 152 148 152
143 150 153 166 178 186 209 205 211 233 271 251 280 299 288 281 276 273 273 278 274 247 254 262 264 269 275 280 285 287 290 290 284 279 276 279 283 271 272 267 247 234 231 231 181 165 163 156 157 158 157 153 148 148
151 159 165 180 206 222 263 220 236 303 277 269 287 266 260 262 267 266 277 255 249 266 267 271 283 292 298 297 301 298 295 293 286 283 280 272 270 278 216 197 191 193 180 172 173 165 164 156 152 150 143 135 144 148
152 162 161 186 210 207 262 206 231 241 241 254 283 260 248 248 259 308 271 251 260 289 318 317 309 307 303 302 300 303 312 309 301 303 330 55 88 115 139 152 162 159 163 170 167 158 150 147 149 148 138 135 145 143
152 167 171 186 200 230 228 213 204 248 253 267 252 262 257 267 307 279 253 266 269 304 326 328 325 319 320 320 315 331 354 359 5 34 72 106 103 105 122 136 149 159 165 164 161 152 149 146 147 144 145 148 151 150
165 179 184 226 205 236 252 207 212 209 251 235 248 257 262 280 287 267 257 277 280 317 327 334 332 328 322 332 342 355 21 12 19 64 88 113 119 122 126 137 147 157 159 153 153 149 149 151 153 153 156 158 156 151
157 198 188 195 209 196 224 217 184 185 232 239 250 258 83 85 277 259 253 277 307 323 329 328 325 323 328 336 334 346 15 32 52 89 101 119 132 132 133 136 138 145 152 154 151 151 153 158 158 155 151 152 152 157
232 237 214 224 260 279 265 266 296 136 252 243 252 344 345 291 256 252 267 319 328 329 327 324 325 324 335 349 19 37 125 119 87 85 118 125 129 129 131 139 143 147 156 155 154 156 156 160 159 160 157 155 156 158
245 256 208 215 221 241 263 280 266 240 255 210 63 320 283 271 261 289 306 318 323 321 326 332 337 341 4 51 27 97 96 99 110 109 112 124 142 147 142 138 143 147 147 154 157 163 166 161 154 153 155 160 167 170
242 250 274 256 239 212 216 203 224 232 243 188 197 260 259 260 290 298 309 312 315 322 334 353 19 52 84 104 115 107 96 114 118 122 118 120 125 128 133 137 146 152 153 158 164 159 154 152 154 155 165 175 176 177
239 236 260 239 203 217 223 214 252 273 259 250 250 270 285 292 303 310 310 326 337 348 5 18 39 83 117 116 107 119 113 119 126 124 124 123 126 133 137 139 142 147 148 145 143 143 149 153 157 166 173 173 157 148
240 212 211 232 245 263 265 282 296 289 276 277 281 278 282 298 321 13 6 9 10 18 18 23 37 59 73 117 124 127 115 119 124 125 119 124 128 134 138 138 140 143 142 140 140 145 150 162 167 162 162 153 151 152
215 223 236 249 260 275 291 280 279 272 278 259 261 252 259 243 271 329 352 337 355 24 41 46 58 61 89 111 123 125 121 127 131 130 133 131 129 134 133 132 145 149 145 146 152 154 146 145 144 149 151 157 159 159
243 271 268 280 259 221 215 231 257 254 231 231 221 197 195 201 267 235 291 6 33 46 41 41 72 98 133 132 127 87 121 122 130 132 130 133 139 145 144 147 150 148 148 152 152 151 153 155 154 160 169 170 172 176
Wind_Speed_850mb
31 34 33 33 27 26 26 25 26 27 27 29 31 30 29 28 23 13 10 13 18 11 50 19 9 17 21 17 5 13 19 8 10 10 4 5 3 5 5 8 11 3 5 5 6 7 10 44 18 13 9 31 38 46
33 29 34 32 28 27 27 28 27 28 29 30 31 30 28 28 26 22 14 16 26 31 50 64 71 69 58 52 46 13 7 4 9 6 4 5 5 4 3 5 9 7 8 5 5 8 6 15 6 3 19 25 47 46
39 34 35 33 31 29 29 29 30 29 30 33 31 30 30 29 29 29 27 27 30 21 45 22 4 20 18 18 28 23 14 15 13 1 4 6 6 5 1 5 4 7 6 6 6 4 9 13 28 18 26 37 42 32
41 38 36 34 35 35 33 32 31 30 31 33 33 33 31 29 27 31 32 26 16 12 12 17 9 35 38 51 43 43 56 43 36 33 16 7 4 5 6 7 8 10 2 3 11 16 15 13 37 40 47 35 37 29
48 40 38 39 36 38 37 34 32 31 32 32 34 35 32 29 27 26 18 5 6 11 10 37 83 21 11 29 34 36 52 63 63 23 8 7 8 4 8 1 8 23 13 9 10 8 7 18 36 41 37 60 51 35
52 47 42 42 43 43 40 38 36 33 31 32 33 34 34 30 28 20 6 5 4 3 12 8 37 64 22 25 25 49 52 51 60 39 16 27 51 15 7 6 9 1 18 16 12 16 19 35 47 34 27 39 46 35
57 53 49 46 46 46 44 42 38 35 34 32 31 31 33 29 25 13 11 5 6 21 11 15 16 17 35 40 42 41 39 46 51 42 25 34 31 24 8 22 22 39 52 62 37 33 37 44 44 43 28 30 36 9
63 60 57 52 53 47 47 46 41 38 34 30 28 29 32 30 29 18 5 10 11 11 10 6 9 17 26 23 22 33 38 49 43 38 24 19 16 17 10 19 46 56 65 68 66 63 64 62 62 55 53 47 55 55
68 67 61 57 54 47 46 45 42 35 28 25 24 24 29 6 3 4 11 20 20 16 7 7 4 8 30 29 20 21 12 6 15 12 12 17 9 11 17 39 37 37 39 41 37 47 62 62 70 77 70 60 62 56
49 57 66 63 58 52 49 46 40 30 23 19 15 6 6 3 8 20 8 3 6 10 11 10 9 8 13 7 9 12 13 8 6 8 9 9 16 43 50 42 47 55 66 65 58 61 53 48 55 57 50 52 12 18
48 52 61 64 60 55 53 44 33 22 19 10 8 7 10 11 16 6 6 8 8 6 12 16 21 10 13 7 7 13 7 7 7 10 11 7 5 11 37 44 40 33 39 53 63 80 82 73 72 67 57 42 16 17
57 51 60 60 60 56 48 38 31 31 20 16 8 12 11 7 9 7 7 5 8 8 15 14 19 25 16 11 3 12 7 7 11 5 7 5 1 39 37 30 29 22 28 44 54 64 75 81 67 63 60 22 16 19
65 53 60 59 56 50 45 38 34 35 23 9 6 5 8 10 4 11 10 8 7 11 19 20 11 15 9 8 10 5 10 12 4 5 9 5 19 44 54 46 43 34 41 45 54 57 64 69 64 50 30 19 23 37
62 55 48 53 53 51 41 40 40 39 19 11 10 9 10 10 11 10 10 9 24 32 43 29 15 11 12 3 9 7 10 8 8 7 5 3 38 58 55 47 46 45 48 49 54 39 56 57 56 42 35 24 29 40
53 49 52 54 51 46 47 47 43 45 15 11 11 10 13 27 21 27 39 42 48 46 47 25 8 10 7 7 7 6 7 8 9 7 11 40 46 46 51 52 48 48 50 53 53 45 41 57 37 36 32 27 28 46
46 47 60 56 51 51 50 47 46 29 10 11 16 10 18 12 24 39 43 44 42 44 31 5 3 6 9 6 7 12 7 9 9 7 29 31 49 46 53 55 49 44 35 46 44 56 33 41 39 36 27 25 41 54
64 53 64 54 57 53 51 49 32 16 14 12 17 28 46 37 31 47 43 48 45 52 7 7 3 10 8 7 7 9 9 7 13 28 34 33 36 44 47 52 47 34 38 34 44 48 42 48 49 40 34 35 34 40
67 44 64 69 68 62 52 22 16 14 16 26 15 29 35 41 44 54 59 56 52 44 19 13 13 9 11 10 13 10 27 51 46 44 38 38 57 77 63 53 42 32 33 36 37 9 52 63 54 53 47 45 40 36
49 62 74 74 75 32 18 19 12 10 24 25 34 47 47 47 48 54 59 58 49 45 19 13 10 9 10 15 22 49 53 59 63 68 72 84 83 77 67 46 35 33 35 31 17 24 51 54 51 63 64 59 61 57
52 59 63 67 40 12 13 11 17 10 10 10 24 35 41 46 54 55 48 44 43 31 12 10 20 44 52 69 71 70 67 68 72 67 70 88 77 67 72 78 71 59 53 29 9 42 52 66 65 63 63 59 59 55
64 63 64 46 19 5 8 8 14 11 15 13 28 33 25 37 43 47 50 49 45 18 13 43 59 66 66 69 69 74 73 67 71 81 86 95 97 63 63 55 44 42 40 28 35 48 57 63 62 59 54 50 45 47
72 72 53 40 10 8 9 14 10 11 11 17 26 15 15 11 24 21 20 18 14 40 46 49 45 43 60 75 84 93 94 86 86 88 89 89 95 76 43 64 60 55 48 56 69 63 57 55 57 60 56 48 52 56
66 52 21 17 11 13 11 10 7 7 5 7 8 6 8 8 7 10 8 9 13 19 24 40 54 62 69 74 72 75 70 61 69 58 47 30 50 61 76 82 74 82 72 80 69 62 61 61 52 52 51 54 51 45
42 20 11 13 13 9 8 10 13 8 6 5 5 7 7 6 9 6 6 10 16 23 47 52 49 53 59 59 60 72 54 37 33 40 42 57 68 69 77 78 78 81 83 85 74 74 61 60 54 50 49 49 45 47
9 10 7 8 13 5 6 7 9 5 6 8 7 7 5 3 3 5 5 10 16 40 54 64 57 56 58 72 67 48 36 20 27 35 42 60 65 71 69 68 67 70 79 84 64 72 61 49 47 45 45 49 48 48
4 12 16 19 9 9 8 5 7 10 6 7 8 5 1 1 4 7 5 13 34 54 64 68 70 72 71 61 55 28 16 11 10 25 32 41 56 61 69 71 67 65 65 64 66 59 58 59 55 47 44 54 56 48
4 8 15 14 9 6 7 9 8 1 4 7 4 6 5 5 8 7 15 28 56 71 64 59 62 66 58 37 30 14 8 9 19 27 40 52 53 58 63 70 69 64 57 54 55 54 54 51 46 44 49 62 45 38
11 8 9 11 12 14 5 5 4 5 6 4 1 3 4 5 7 9 32 69 74 61 49 45 38 40 35 30 24 15 26 37 49 51 46 44 46 48 49 45 50 57 55 49 55 51 50 49 45 54 67 50 39 47
9 10 7 10 11 12 14 11 8 10 6 1 3 4 7 14 44 72 73 63 42 40 40 25 27 27 32 56 48 29 34 54 54 63 59 57 56 53 48 50 51 52 54 46 42 44 46 45 49 57 39 34 42 42
14 22 10 8 8 8 10 19 14 23 21 19 16 24 42 61 61 56 35 22 28 36 39 40 39 38 50 44 40 45 42 45 45 56 63 57 52 48 43 43 45 45 48 48 45 41 40 50 53 38 33 39 52 49
9 10 15 11 6 11 21 27 33 28 27 24 34 37 39 41 34 12 13 15 20 33 39 30 29 33 30 38 59 63 52 41 42 49 46 43 43 43 47 46 44 44 45 45 49 55 46 35 35 43 52 62 50 48
11 11 7 5 10 19 26 18 16 14 19 18 20 20 7 8 10 7 12 11 11 11 21 22 19 26 23 35 48 46 50 40 44 41 43 42 41 42 39 37 40 52 48 47 43 41 45 39 43 55 56 46 50 50
7 7 10 10 6 5 11 9 8 8 15 10 12 16 21 15 6 1 7 6 12 7 8 12 12 17 33 37 35 24 24 33 37 47 40 39 40 35 31 33 43 46 44 43 46 38 35 48 47 39 40 45 44 35
Wind_Direction_850mb
287 292 302 311 301 306 312 314 320 329 337 345 347 348 350 348 349 350 283 310 324 265 289 286 200 257 290 293 195 305 342 337 352 38 19 315 351 304 346 262 299 273 345 303 85 188 300 348 353 68 274 335 344 339
283 281 287 299 298 300 307 308 308 317 327 333 339 340 342 342 340 337 333 297 278 269 269 285 281 275 268 283 252 262 249 311 274 60 14 340 328 307 259 280 348 19 150 243 202 195 213 306 165 250 38 1 7 4
287 276 273 280 288 294 300 303 303 309 317 323 327 331 332 333 332 330 333 331 320 303 304 284 319 285 269 320 305 225 248 225 228 275 189 237 259 132 291 262 29 292 161 224 355 194 258 281 1 323 353 7 2 39
277 279 277 268 278 284 289 295 300 304 309 315 316 319 323 327 325 322 326 326 303 308 286 296 273 293 275 274 273 253 253 254 264 271 252 215 194 262 240 204 159 228 57 197 249 262 300 279 322 333 334 325 322 5
272 274 271 269 266 274 279 286 293 299 305 308 310 313 315 319 320 323 326 160 166 313 289 297 306 320 313 286 265 264 249 249 250 238 193 218 230 266 274 283 220 211 209 178 242 208 188 286 329 308 305 305 312 309
265 268 270 266 264 268 275 278 286 293 297 301 304 306 308 313 318 333 216 224 176 310 296 309 301 298 343 342 319 252 246 260 232 226 217 233 235 229 268 240 266 79 337 291 271 301 277 298 303 309 331 292 287 309
257 258 262 264 259 260 266 272 278 283 289 292 295 298 301 305 308 293 251 201 260 303 277 300 282 288 317 333 322 314 290 263 250 240 226 230 221 214 224 262 275 286 291 291 291 265 271 286 284 305 317 278 266 9
252 252 255 257 260 261 259 264 270 278 279 283 291 295 295 300 304 301 237 297 289 298 242 271 273 305 351 344 347 330 322 303 257 233 223 203 225 197 243 241 248 255 256 262 264 256 262 277 283 285 294 298 287 268
249 248 249 254 256 254 254 257 261 267 265 273 283 290 297 294 279 337 301 280 275 233 259 268 261 286 337 349 334 317 284 318 291 234 219 197 191 215 215 212 230 251 269 293 305 273 262 269 280 278 285 297 275 270
259 260 249 249 251 249 249 250 253 249 250 264 280 264 292 272 317 302 285 219 227 213 232 252 263 268 292 290 276 305 276 256 256 245 311 214 226 220 228 246 271 280 289 290 287 284 283 277 273 287 292 325 309 234
258 262 252 245 244 243 243 240 238 220 220 223 200 233 247 269 279 248 238 195 187 252 226 239 233 232 260 238 249 246 248 245 242 254 159 234 267 211 233 246 267 286 302 293 284 283 281 281 284 293 291 299 305 216
253 253 253 239 238 237 231 225 207 191 187 186 220 267 273 233 228 229 210 220 195 238 207 208 246 237 262 248 309 291 281 278 262 191 145 209 299 24 15 354 358 8 332 317 299 294 280 277 278 282 295 225 243 225
244 245 245 235 229 221 215 210 188 187 186 212 233 248 217 226 207 195 213 224 224 216 217 236 269 272 240 237 238 240 240 239 252 205 202 93 355 0 352 339 328 335 346 312 294 281 275 274 270 277 247 243 220 193
232 225 227 223 209 207 203 180 174 174 168 183 198 266 193 219 223 199 214 208 220 272 284 273 264 208 227 240 230 252 254 294 262 201 89 265 346 347 343 334 321 316 325 325 328 299 269 270 261 273 229 221 213 194
213 213 203 197 201 191 174 170 168 169 164 195 204 234 228 229 252 250 246 259 265 284 300 280 268 242 224 234 229 267 262 247 339 50 330 317 324 326 330 332 327 320 318 316 328 328 295 256 255 222 209 206 210 196
194 182 190 188 184 169 162 163 167 166 188 220 230 248 251 251 257 267 268 276 298 275 295 209 234 287 251 205 242 217 254 240 215 198 248 296 302 311 323 322 313 308 309 318 320 320 283 215 213 209 192 201 177 177
183 181 184 176 162 157 157 158 160 194 211 225 239 241 255 278 278 278 281 286 292 296 210 178 213 250 296 242 245 215 221 218 226 280 277 277 273 292 298 303 305 306 304 292 296 317 210 194 194 196 196 187 177 171
184 181 171 159 153 152 158 156 181 213 238 237 250 252 252 260 268 277 280 283 283 273 229 204 203 215 223 243 250 250 268 288 294 303 291 284 294 300 297 299 296 285 270 272 298 305 173 179 177 175 175 167 162 158
178 162 160 160 155 136 158 189 202 249 238 250 257 268 270 270 272 274 276 282 288 283 245 177 239 223 228 240 261 276 286 294 302 302 295 296 296 296 297 284 264 258 272 300 321 187 167 180 181 163 154 152 150 151
146 151 156 153 150 148 170 191 199 244 261 256 280 270 270 271 277 282 281 284 289 293 237 218 242 256 266 272 275 277 283 289 291 287 293 293 291 287 282 282 274 272 274 263 274 161 160 151 153 154 154 152 148 152
143 150 153 166 178 186 209 205 211 233 271 251 280 299 288 281 276 273 273 278 274 247 254 262 264 269 275 280 285 287 290 290 284 279 276 279 283 271 272 267 247 234 231 231 181 165 163 156 157 158 157 153 148 148
151 159 165 180 206 222 263 220 236 303 277 269 287 266 260 262 267 266 277 255 249 266 267 271 283 292 298 297 301 298 295 293 286 283 280 272 270 278 216 197 191 193 180 172 173 165 164 156 152 150 143 135 144 148
152 162 161 186 210 207 262 206 231 241 241 254 283 260 248 248 259 308 271 251 260 289 318 317 309 307 303 302 300 303 312 309 301 303 330 55 88 115 139 152 162 159 163 170 167 158 150 147 149 148 138 135 145 143
152 167 171 186 200 230 228 213 204 248 253 267 252 262 257 267 307 279 253 266 269 304 326 328 325 319 320 320 315 331 354 359 5 34 72 106 103 105 122 136 149 159 165 164 161 152 149 146 147 144 145 148 151 150
165 179 184 226 205 236 252 207 212 209 251 235 248 257 262 280 287 267 257 277 280 317 327 334 332 328 322 332 342 355 21 12 19 64 88 113 119 122 126 137 147 157 159 153 153 149 149 151 153 153 156 158 156 151
157 198 188 195 209 196 224 217 184 185 232 239 250 258 83 85 277 259 253 277 307 323 329 328 325 323 328 336 334 346 15 32 52 89 101 119 132 132 133 136 138 145 152 154 151 151 153 158 158 155 151 152 152 157
232 237 214 224 260 279 265 266 296 136 252 243 252 344 345 291 256 252 267 319 328 329 327 324 325 324 335 349 19 37 125 119 87 85 118 125 129 129 131 139 143 147 156 155 154 156 156 160 159 160 157 155 156 158
245 256 208 215 221 241 263 280 266 240 255 210 63 320 283 271 261 289 306 318 323 321 326 332 337 341 4 51 27 97 96 99 110 109 112 124 142 147 142 138 143 147 147 154 157 163 166 161 154 153 155 160 167 170
242 250 274 256 239 212 216 203 224 232 243 188 197 260 259 260 290 298 309 312 315 322 334 353 19 52 84 104 115 107 96 114 118 122 118 120 125 128 133 137 146 152 153 158 164 159 154 152 154 155 165 175 176 177
239 236 260 239 203 217 223 214 252 273 259 250 250 270 285 292 303 310 310 326 337 348 5 18 39 83 117 116 107 119 113 119 126 124 124 123 126 133 137 139 142 147 148 145 143 143 149 153 157 166 173 173 157 148
240 212 211 232 245 263 265 282 296 289 276 277 281 278 282 298 321 13 6 9 10 18 18 23 37 59 73 117 124 127 115 119 124 125 119 124 128 134 138 138 140 143 142 140 140 145 150 162 167 162 162 153 151 152
215 223 236 249 260 275 291 280 279 272 278 259 261 252 259 243 271 329 352 337 355 24 41 46 58 61 89 111 123 125 121 127 131 130 133 131 129 134 133 132 145 149 145 146 152 154 146 145 144 149 151 157 159 159
243 271 268 280 259 221 215 231 257 254 231 231 221 197 195 201 267 235 291 6 33 46 41 41 72 98 133 132 127 87 121 122 130 132 130 133 139 145 144 147 150 148 148 152 152 151 153 155 154 160 169 170 172 176